CCA3411 ZGGG-ZPPP

Flight info

Callsign CCA3411
Flight time N/A
Altitude 36100
Route VIBOS2 VIBOS R473 ZUH R200 LH R339 BSE A599 LXI LXI1L
Aircraft A35K/H-SDE2E3GHIJ3J4J5LM1ORWXY/LB1D1

Departure

Time 2026-05-04 11:40
Airport Guangzhou Baiyun International Airport (ZGGG)

Arrival

Time N/A
Airport Kunming Changshui International Airport (ZPPP)
Time Latitude Longitude Altitude Speed Heading
2026-05-04 11:36 23.40901 113.31269 52 ft 0 kts 79°
2026-05-04 11:37 23.40904 113.31287 54 ft 6 kts 79°
2026-05-04 11:37 23.40901 113.31356 55 ft 12 kts 102°
2026-05-04 11:37 23.40872 113.31429 51 ft 0 kts 149°
2026-05-04 11:37 23.40864 113.31428 54 ft 3 kts 182°
2026-05-04 11:38 23.40836 113.31420 52 ft 0 kts 196°
2026-05-04 11:39 23.40828 113.31418 52 ft 9 kts 196°
2026-05-04 11:39 23.40486 113.31322 51 ft 101 kts 193°
2026-05-04 11:40 23.32604 113.29207 2772 ft 243 kts 192°
2026-05-04 11:41 23.30983 113.28768 2955 ft 244 kts 192°
2026-05-04 11:41 23.29310 113.28316 2989 ft 245 kts 192°
2026-05-04 11:41 23.27679 113.27876 2989 ft 245 kts 192°
2026-05-04 11:41 23.26037 113.27421 3117 ft 244 kts 195°
2026-05-04 11:42 23.24413 113.26850 3635 ft 247 kts 198°
2026-05-04 11:42 23.22812 113.26259 4488 ft 247 kts 198°
2026-05-04 11:42 23.21152 113.25659 5355 ft 249 kts 199°
2026-05-04 11:42 23.19528 113.25082 6232 ft 247 kts 201°
2026-05-04 11:43 23.17893 113.24504 7132 ft 247 kts 201°
2026-05-04 11:43 23.16245 113.23923 7982 ft 250 kts 202°
2026-05-04 11:43 23.14602 113.23346 8895 ft 251 kts 202°
2026-05-04 11:43 23.12923 113.22757 9802 ft 254 kts 202°
2026-05-04 11:44 23.11243 113.22169 10596 ft 256 kts 202°
2026-05-04 11:44 23.09538 113.21573 11378 ft 259 kts 202°
2026-05-04 11:44 23.07807 113.20969 12219 ft 261 kts 203°
2026-05-04 11:44 23.06070 113.20362 13039 ft 264 kts 203°
2026-05-04 11:45 23.04328 113.19756 13853 ft 267 kts 203°
2026-05-04 11:45 23.02619 113.19318 14507 ft 276 kts 192°
2026-05-04 11:45 23.00683 113.19452 15038 ft 298 kts 173°
2026-05-04 11:45 22.98611 113.20104 15343 ft 321 kts 168°
2026-05-04 11:46 22.96498 113.20875 15789 ft 333 kts 167°
2026-05-04 11:46 22.94281 113.21682 16430 ft 338 kts 168°
2026-05-04 11:46 22.92004 113.22495 17112 ft 343 kts 168°
2026-05-04 11:46 22.89741 113.23293 17754 ft 348 kts 168°
2026-05-04 11:47 22.87413 113.24108 18411 ft 353 kts 168°
2026-05-04 11:47 22.85034 113.24938 18988 ft 358 kts 168°
2026-05-04 11:47 22.82671 113.25761 19597 ft 361 kts 168°
2026-05-04 11:47 22.80278 113.26593 20200 ft 364 kts 168°
2026-05-04 11:48 22.77852 113.27435 20807 ft 367 kts 168°
2026-05-04 11:48 22.75426 113.28276 21406 ft 371 kts 168°
2026-05-04 11:48 22.72939 113.29138 22017 ft 374 kts 168°
2026-05-04 11:48 22.70460 113.29996 22527 ft 382 kts 168°
2026-05-04 11:49 22.67887 113.30883 22825 ft 395 kts 168°
2026-05-04 11:49 22.65216 113.31804 23100 ft 408 kts 168°
2026-05-04 11:49 22.62468 113.32754 23375 ft 420 kts 167°
2026-05-04 11:49 22.59653 113.33733 23606 ft 432 kts 167°
2026-05-04 11:50 22.56756 113.34734 23806 ft 442 kts 167°
2026-05-04 11:50 22.53774 113.35760 24014 ft 453 kts 167°
2026-05-04 11:50 22.50754 113.36799 24238 ft 461 kts 167°
2026-05-04 11:50 22.48730 113.37497 24467 ft 464 kts 167°
2026-05-04 11:51 22.44622 113.38916 25057 ft 468 kts 167°
2026-05-04 11:51 22.41531 113.39985 25522 ft 471 kts 167°
2026-05-04 11:51 22.39424 113.40713 25867 ft 473 kts 168°
2026-05-04 11:51 22.35239 113.42158 26546 ft 477 kts 168°
2026-05-04 11:52 22.32101 113.43229 27049 ft 478 kts 169°
2026-05-04 11:52 22.28851 113.43895 27605 ft 470 kts 181°
2026-05-04 11:52 22.25634 113.43818 28068 ft 463 kts 193°
2026-05-04 11:52 22.23524 113.43340 28410 ft 459 kts 201°
2026-05-04 11:53 22.19719 113.41453 29092 ft 451 kts 217°
2026-05-04 11:53 22.18042 113.40070 29421 ft 449 kts 225°
2026-05-04 11:53 22.15401 113.36688 30053 ft 447 kts 240°
2026-05-04 11:53 22.14055 113.33668 30408 ft 448 kts 251°
2026-05-04 11:55 22.12839 113.11577 33613 ft 442 kts 248°
2026-05-04 11:55 22.11379 113.08667 34104 ft 443 kts 239°
2026-05-04 11:56 22.09421 113.06029 34447 ft 447 kts 231°
2026-05-04 11:56 22.07303 113.03607 34735 ft 449 kts 230°
2026-05-04 11:56 22.05243 113.01065 35047 ft 447 kts 236°
2026-05-04 11:56 22.03478 112.98327 35277 ft 446 kts 242°
2026-05-04 11:57 22.02025 112.95380 35540 ft 445 kts 246°
2026-05-04 11:57 22.00715 112.92337 35860 ft 445 kts 248°
2026-05-04 11:57 21.99494 112.89277 36023 ft 445 kts 249°
2026-05-04 11:58 21.97148 112.83140 36030 ft 444 kts 250°
2026-05-04 11:58 21.94766 112.77010 36033 ft 445 kts 249°
2026-05-04 11:59 21.92302 112.70894 36030 ft 445 kts 249°
2026-05-04 11:59 21.89833 112.64806 36036 ft 445 kts 249°
2026-05-04 12:00 21.87361 112.58706 36038 ft 446 kts 249°
2026-05-04 12:00 21.84879 112.52582 36039 ft 445 kts 249°
2026-05-04 12:01 21.82444 112.46455 36036 ft 445 kts 249°
2026-05-04 12:02 21.73935 112.24983 36034 ft 447 kts 249°
2026-05-04 12:03 21.71488 112.18850 36038 ft 447 kts 249°
2026-05-04 12:03 21.69049 112.12742 36045 ft 447 kts 249°
2026-05-04 12:04 21.66598 112.06610 36032 ft 447 kts 249°
2026-05-04 12:04 21.64139 112.00466 36031 ft 447 kts 249°
2026-05-04 12:05 21.61680 111.94329 36031 ft 447 kts 249°
2026-05-04 12:05 21.59221 111.88200 36021 ft 447 kts 249°
2026-05-04 12:06 21.56890 111.82010 36037 ft 447 kts 253°
2026-05-04 12:06 21.54960 111.75652 36038 ft 447 kts 254°
2026-05-04 12:07 21.53145 111.69305 36037 ft 447 kts 255°
2026-05-04 12:07 21.51334 111.62935 36038 ft 447 kts 255°
2026-05-04 12:08 21.49500 111.56533 36037 ft 447 kts 254°
2026-05-04 12:08 21.47665 111.50159 36036 ft 447 kts 254°
2026-05-04 12:09 21.45818 111.43760 36037 ft 447 kts 254°
2026-05-04 12:09 21.43986 111.37423 36036 ft 447 kts 254°
2026-05-04 12:10 21.42140 111.31046 36036 ft 447 kts 254°
2026-05-04 12:10 21.40296 111.24684 36036 ft 447 kts 254°
2026-05-04 12:11 21.38445 111.18309 36019 ft 447 kts 254°
2026-05-04 12:11 21.36589 111.11929 36032 ft 448 kts 254°
2026-05-04 12:12 21.34728 111.05537 36036 ft 449 kts 254°
2026-05-04 12:12 21.32860 110.99134 36033 ft 449 kts 254°
2026-05-04 12:14 21.25379 110.73585 36031 ft 449 kts 254°
2026-05-04 12:15 21.23499 110.67192 36031 ft 450 kts 254°
2026-05-04 12:15 21.21632 110.60848 36031 ft 450 kts 254°
2026-05-04 12:16 21.19747 110.54456 36029 ft 450 kts 254°
2026-05-04 12:16 21.17858 110.48060 36027 ft 450 kts 254°
2026-05-04 12:17 21.16004 110.41648 36027 ft 449 kts 257°
2026-05-04 12:17 21.15231 110.35042 36028 ft 448 kts 271°
2026-05-04 12:18 21.16264 110.28523 36029 ft 450 kts 287°
2026-05-04 12:18 21.18875 110.22400 36029 ft 453 kts 295°
2026-05-04 12:19 21.21901 110.16472 36032 ft 453 kts 296°
2026-05-04 12:19 21.24959 110.10558 36031 ft 453 kts 296°
2026-05-04 12:20 21.27975 110.04625 36030 ft 453 kts 296°
2026-05-04 12:20 21.30949 109.98708 36028 ft 453 kts 296°
2026-05-04 12:21 21.33934 109.92750 36030 ft 453 kts 296°
2026-05-04 12:21 21.36912 109.86804 36028 ft 453 kts 296°
2026-05-04 12:22 21.39892 109.80847 36029 ft 453 kts 296°
2026-05-04 12:22 21.42870 109.74891 36029 ft 452 kts 296°
2026-05-04 12:23 21.45826 109.68973 36028 ft 452 kts 296°
2026-05-04 12:23 21.48797 109.63018 36028 ft 452 kts 296°
2026-05-04 12:24 21.51769 109.57054 36030 ft 452 kts 296°
2026-05-04 12:24 21.54740 109.51085 36025 ft 452 kts 295°
2026-05-04 12:25 21.57746 109.45132 36027 ft 453 kts 298°
2026-05-04 12:25 21.61426 109.39653 36047 ft 456 kts 305°
2026-05-04 12:26 21.65456 109.34406 36024 ft 455 kts 307°
2026-05-04 12:26 21.69551 109.29218 36021 ft 454 kts 307°
2026-05-04 12:27 21.73632 109.24027 36021 ft 454 kts 307°
2026-05-04 12:27 21.77670 109.18859 36021 ft 454 kts 306°
2026-05-04 12:28 21.81730 109.13647 36025 ft 454 kts 306°
2026-05-04 12:28 21.85790 109.08432 36026 ft 455 kts 307°
2026-05-04 12:29 21.89868 109.03222 36028 ft 455 kts 307°
2026-05-04 12:29 21.93950 108.98008 36114 ft 455 kts 307°
2026-05-04 12:30 21.98029 108.92792 36146 ft 455 kts 307°
2026-05-04 12:30 22.02111 108.87566 36126 ft 455 kts 306°
2026-05-04 12:31 22.06185 108.82344 36127 ft 455 kts 306°
2026-05-04 12:31 22.10252 108.77125 36124 ft 455 kts 306°
2026-05-04 12:32 22.16364 108.69305 36123 ft 454 kts 307°
2026-05-04 12:33 22.20417 108.64120 36122 ft 454 kts 307°
2026-05-04 12:33 22.24492 108.58902 36123 ft 454 kts 307°
2026-05-04 12:34 22.28586 108.53654 36123 ft 454 kts 307°
2026-05-04 12:34 22.32632 108.48463 36122 ft 454 kts 306°
2026-05-04 12:35 22.36695 108.43244 36134 ft 453 kts 306°
2026-05-04 12:35 22.40751 108.38030 36125 ft 453 kts 306°
2026-05-04 12:36 22.44778 108.32848 36120 ft 453 kts 306°
2026-05-04 12:36 22.48821 108.27641 36117 ft 453 kts 306°
2026-05-04 12:37 22.52894 108.22388 36119 ft 453 kts 306°
2026-05-04 12:37 22.56908 108.17208 36208 ft 453 kts 306°
2026-05-04 12:37 22.58933 108.14592 36477 ft 453 kts 306°
2026-05-04 12:38 22.61017 108.12027 36822 ft 454 kts 309°
2026-05-04 12:38 22.63186 108.09540 37150 ft 454 kts 310°
2026-05-04 12:38 22.65390 108.07084 37460 ft 454 kts 311°
2026-05-04 12:38 22.67597 108.04636 37793 ft 453 kts 311°
2026-05-04 12:39 22.69791 108.02187 38052 ft 454 kts 310°
2026-05-04 12:39 22.73427 107.98077 38120 ft 453 kts 310°
2026-05-04 12:40 22.78458 107.92326 38118 ft 452 kts 310°
2026-05-04 12:40 22.82080 107.88168 38119 ft 452 kts 310°
2026-05-04 12:41 22.87097 107.82406 38117 ft 452 kts 310°
2026-05-04 12:41 22.91410 107.77452 38116 ft 452 kts 310°
2026-05-04 12:42 22.94999 107.73325 38118 ft 452 kts 310°
2026-05-04 12:42 22.99316 107.68357 38122 ft 452 kts 310°
2026-05-04 12:43 23.03623 107.63398 38121 ft 452 kts 310°
2026-05-04 12:43 23.07943 107.58430 38124 ft 451 kts 310°
2026-05-04 12:44 23.12234 107.53477 38123 ft 449 kts 310°
2026-05-04 12:44 23.16526 107.48518 38121 ft 449 kts 310°
2026-05-04 12:45 23.20807 107.43569 38123 ft 449 kts 310°
2026-05-04 12:45 23.25066 107.38645 38118 ft 449 kts 310°
2026-05-04 12:46 23.29356 107.33677 38124 ft 450 kts 310°
2026-05-04 12:46 23.33651 107.28700 38125 ft 450 kts 310°
2026-05-04 12:47 23.37933 107.23732 38126 ft 450 kts 310°
2026-05-04 12:47 23.42218 107.18755 38144 ft 450 kts 310°
2026-05-04 12:48 23.46493 107.13787 38129 ft 449 kts 310°
2026-05-04 12:48 23.50733 107.08854 38129 ft 448 kts 310°
2026-05-04 12:49 23.55012 107.03871 38125 ft 447 kts 310°
2026-05-04 12:49 23.59227 106.98956 38128 ft 445 kts 310°
2026-05-04 12:50 23.63459 106.94018 38131 ft 445 kts 310°
2026-05-04 12:50 23.67681 106.89085 38133 ft 445 kts 310°
2026-05-04 12:51 23.71915 106.84131 38126 ft 445 kts 310°
2026-05-04 12:51 23.76111 106.79218 38131 ft 445 kts 310°
2026-05-04 12:52 23.80333 106.74272 38129 ft 445 kts 310°
2026-05-04 12:52 23.84574 106.69296 38116 ft 445 kts 310°
2026-05-04 12:53 23.88750 106.64343 38124 ft 445 kts 307°
2026-05-04 12:53 23.92103 106.58708 38127 ft 442 kts 294°
2026-05-04 12:54 23.94007 106.52332 38126 ft 441 kts 284°
2026-05-04 12:54 23.95349 106.45819 38130 ft 442 kts 282°
2026-05-04 12:55 23.96619 106.39235 38135 ft 442 kts 282°
2026-05-04 12:55 23.97914 106.32666 38127 ft 442 kts 283°
2026-05-04 12:56 23.99237 106.26082 38127 ft 443 kts 283°
2026-05-04 12:56 24.00563 106.19495 38131 ft 443 kts 283°
2026-05-04 12:57 24.01886 106.12911 38141 ft 443 kts 283°
2026-05-04 12:57 24.03197 106.06360 38144 ft 443 kts 283°
2026-05-04 12:58 24.04511 105.99771 38148 ft 443 kts 283°
2026-05-04 12:58 24.05823 105.93192 38147 ft 442 kts 283°
2026-05-04 12:59 24.07129 105.86628 38148 ft 441 kts 283°
2026-05-04 12:59 24.08428 105.80069 38148 ft 440 kts 283°
2026-05-04 13:00 24.09722 105.73515 38158 ft 441 kts 283°
2026-05-04 13:00 24.11055 105.66963 38150 ft 441 kts 284°
2026-05-04 13:01 24.12652 105.60495 38161 ft 440 kts 286°
2026-05-04 13:01 24.14301 105.54026 38168 ft 441 kts 285°
2026-05-04 13:02 24.15906 105.47571 38161 ft 441 kts 285°
2026-05-04 13:02 24.17485 105.41077 38158 ft 441 kts 285°
2026-05-04 13:03 24.19053 105.34582 38164 ft 441 kts 285°
2026-05-04 13:03 24.20623 105.28081 38146 ft 441 kts 285°
2026-05-04 13:04 24.22194 105.21575 38159 ft 444 kts 285°
2026-05-04 13:04 24.23676 105.14999 38159 ft 445 kts 284°
2026-05-04 13:05 24.25112 105.08394 38158 ft 445 kts 284°
2026-05-04 13:05 24.26550 105.01825 38162 ft 445 kts 284°
2026-05-04 13:06 24.27995 104.95245 38164 ft 444 kts 284°
2026-05-04 13:06 24.29435 104.88674 38172 ft 443 kts 284°
2026-05-04 13:07 24.30871 104.82103 38165 ft 443 kts 284°
2026-05-04 13:07 24.32306 104.75525 38164 ft 444 kts 284°
2026-05-04 13:08 24.33740 104.68940 38168 ft 444 kts 284°
2026-05-04 13:08 24.35171 104.62351 38185 ft 444 kts 284°
2026-05-04 13:09 24.36600 104.55759 38187 ft 444 kts 284°
2026-05-04 13:09 24.38027 104.49164 38203 ft 444 kts 284°
2026-05-04 13:10 24.39441 104.42608 38206 ft 444 kts 284°
2026-05-04 13:10 24.40863 104.36009 38208 ft 444 kts 284°
2026-05-04 13:11 24.42282 104.29405 38226 ft 444 kts 284°
2026-05-04 13:11 24.43692 104.22808 38223 ft 444 kts 284°
2026-05-04 13:12 24.45098 104.16243 38242 ft 445 kts 284°
2026-05-04 13:12 24.46509 104.09636 38246 ft 445 kts 284°
2026-05-04 13:13 24.47918 104.03022 38263 ft 445 kts 283°
2026-05-04 13:13 24.49323 103.96402 38265 ft 445 kts 284°
2026-05-04 13:14 24.50728 103.89778 38280 ft 445 kts 283°
2026-05-04 13:14 24.52128 103.83157 38284 ft 445 kts 283°
2026-05-04 13:15 24.53514 103.76542 38295 ft 444 kts 282°
2026-05-04 13:15 24.54143 103.69795 38299 ft 445 kts 273°
2026-05-04 13:16 24.54297 103.62994 38308 ft 446 kts 273°
2026-05-04 13:16 24.54451 103.56187 38308 ft 446 kts 273°
2026-05-04 13:17 24.54606 103.49421 38317 ft 445 kts 273°
2026-05-04 13:17 24.54759 103.42618 38315 ft 446 kts 273°
2026-05-04 13:18 24.54910 103.35808 38315 ft 446 kts 273°
2026-05-04 13:18 24.55058 103.28999 38322 ft 446 kts 273°
2026-05-04 13:19 24.55214 103.22185 38323 ft 446 kts 274°
2026-05-04 13:19 24.56317 103.15523 38327 ft 443 kts 289°
2026-05-04 13:20 24.58446 103.09161 38328 ft 445 kts 290°
2026-05-04 13:20 24.60625 103.02737 38339 ft 447 kts 290°
2026-05-04 13:21 24.62629 102.96830 36892 ft 461 kts 290°
2026-05-04 13:21 24.63730 102.93555 36035 ft 461 kts 289°
2026-05-04 13:21 24.64843 102.90243 35359 ft 458 kts 289°
2026-05-04 13:21 24.65972 102.86967 34632 ft 457 kts 291°
2026-05-04 13:22 24.67477 102.83886 33811 ft 460 kts 302°
2026-05-04 13:22 24.69617 102.81247 32935 ft 467 kts 315°
2026-05-04 13:22 24.72321 102.79246 32077 ft 477 kts 328°
2026-05-04 13:22 24.75506 102.78018 31185 ft 491 kts 342°
2026-05-04 13:23 24.78953 102.77726 30306 ft 507 kts 356°
2026-05-04 13:23 24.82445 102.78421 29306 ft 522 kts 11°
2026-05-04 13:23 24.85798 102.80121 28463 ft 531 kts 26°
2026-05-04 13:23 24.88667 102.82595 27259 ft 529 kts 40°
2026-05-04 13:24 24.90947 102.85771 25883 ft 531 kts 56°
2026-05-04 13:24 24.92449 102.89403 24745 ft 525 kts 68°
2026-05-04 13:24 24.93623 102.93179 23823 ft 510 kts 68°
2026-05-04 13:25 24.95701 102.99178 21504 ft 492 kts 63°
2026-05-04 13:25 24.98118 103.03235 19694 ft 473 kts 43°
2026-05-04 13:25 25.00567 103.05564 18644 ft 456 kts 32°
2026-05-04 13:25 25.03056 103.07578 18073 ft 430 kts 32°
2026-05-04 13:26 25.05414 103.09450 17635 ft 404 kts 31°
2026-05-04 13:26 25.07634 103.11179 17278 ft 380 kts 32°
2026-05-04 13:26 25.09717 103.12816 16998 ft 354 kts 31°
2026-05-04 13:26 25.11670 103.14336 16800 ft 330 kts 30°
2026-05-04 13:27 25.13452 103.15736 16618 ft 309 kts 31°
2026-05-04 13:27 25.14604 103.16648 16527 ft 294 kts 30°
2026-05-04 13:27 25.16725 103.18290 16343 ft 267 kts 29°
2026-05-04 13:27 25.18193 103.19438 16212 ft 248 kts 31°
2026-05-04 13:28 25.19515 103.20507 16080 ft 227 kts 33°
2026-05-04 13:28 25.20342 103.21184 15978 ft 210 kts 33°
2026-05-04 13:28 25.21434 103.22064 15869 ft 186 kts 31°
2026-05-04 13:28 25.22492 103.22892 15739 ft 195 kts 31°
2026-05-04 13:29 25.23804 103.23912 15660 ft 222 kts 32°
2026-05-04 13:29 25.25363 103.25156 15301 ft 223 kts 33°
2026-05-04 13:29 25.26278 103.25879 15059 ft 231 kts 33°
2026-05-04 13:29 25.27575 103.26901 14952 ft 238 kts 34°
2026-05-04 13:30 25.28948 103.27800 14710 ft 231 kts 20°
2026-05-04 13:30 25.30475 103.28130 14348 ft 222 kts 356°
2026-05-04 13:30 25.31964 103.27765 14104 ft 217 kts 335°
2026-05-04 13:30 25.33166 103.26818 13938 ft 212 kts 314°
2026-05-04 13:31 25.33701 103.26022 13869 ft 210 kts 302°
2026-05-04 13:32 25.34019 103.25242 13794 ft 209 kts 291°
2026-05-04 13:32 25.34208 103.23654 13671 ft 211 kts 271°
2026-05-04 13:32 25.33860 103.22079 13544 ft 213 kts 254°
2026-05-04 13:33 25.33253 103.20612 13375 ft 211 kts 251°
2026-05-04 13:33 25.32661 103.19156 13044 ft 206 kts 256°
2026-05-04 13:33 25.32415 103.17626 12735 ft 201 kts 275°
2026-05-04 13:33 25.32478 103.16072 12453 ft 204 kts 279°
2026-05-04 13:34 25.32476 103.14494 12161 ft 208 kts 266°
2026-05-04 13:34 25.31917 103.13039 11891 ft 205 kts 238°
2026-05-04 13:34 25.30897 103.11976 11663 ft 196 kts 226°
2026-05-04 13:34 25.29816 103.11039 11604 ft 196 kts 226°
2026-05-04 13:35 25.28765 103.10170 11493 ft 186 kts 221°
2026-05-04 13:35 25.26684 103.08539 10763 ft 183 kts 226°
2026-05-04 13:35 25.25716 103.07640 10354 ft 186 kts 227°
2026-05-04 13:36 25.25047 103.07069 10185 ft 184 kts 224°
2026-05-04 13:36 25.23748 103.05977 9891 ft 171 kts 225°
2026-05-04 13:36 25.22823 103.05162 9665 ft 171 kts 226°
2026-05-04 13:36 25.21880 103.04336 9455 ft 173 kts 225°
2026-05-04 13:37 25.21255 103.03792 9292 ft 173 kts 225°